Time,TemperatureF,DewpointF,PressureIn,WindDirection,WindDirectionDegrees,WindSpeedMPH,WindSpeedGustMPH,Humidity,HourlyPrecipIn,Conditions,Clouds,dailyrainin,SoftwareType,DateUTC
2013-05-15 00:00:00,72.9,42.8,29.23,NNW,337,4.0,4.0,34,0.00,,,0.00,WeatherTracker,2013-05-15 05:00:00,
2013-05-15 00:05:00,72.7,42.8,29.23,NNW,337,3.0,4.0,34,0.00,,,0.00,WeatherTracker,2013-05-15 05:05:00,
2013-05-15 00:15:00,72.1,42.8,29.23,NNW,337,4.0,5.0,34,0.00,,,0.00,WeatherTracker,2013-05-15 05:15:00,
2013-05-15 00:25:00,72.0,42.8,29.23,North,0,4.0,4.0,34,0.00,,,0.00,WeatherTracker,2013-05-15 05:25:00,
2013-05-15 00:30:00,72.0,42.8,29.23,North,0,5.0,5.0,34,0.00,,,0.00,WeatherTracker,2013-05-15 05:30:00,
2013-05-15 00:35:00,71.6,42.8,29.23,North,0,3.0,4.0,34,0.00,,,0.00,WeatherTracker,2013-05-15 05:35:00,
2013-05-15 00:40:00,71.6,42.8,29.23,North,0,3.0,3.0,34,0.00,,,0.00,WeatherTracker,2013-05-15 05:40:00,
2013-05-15 00:50:00,71.4,42.8,29.23,NNW,337,4.0,4.0,35,0.00,,,0.00,WeatherTracker,2013-05-15 05:50:00,
2013-05-15 00:55:00,71.4,42.8,29.23,NNE,22,5.0,5.0,34,0.00,,,0.00,WeatherTracker,2013-05-15 05:55:00,
2013-05-15 01:00:00,71.2,42.8,29.23,North,0,4.0,4.0,35,0.00,,,0.00,WeatherTracker,2013-05-15 06:00:00,
2013-05-15 01:10:00,70.9,42.8,29.23,NNW,337,4.0,4.0,35,0.00,,,0.00,WeatherTracker,2013-05-15 06:10:00,
2013-05-15 01:15:00,70.9,42.8,29.23,NNW,337,3.0,3.0,35,0.00,,,0.00,WeatherTracker,2013-05-15 06:15:00,
2013-05-15 01:25:00,70.9,42.8,29.23,NNW,337,4.0,4.0,35,0.00,,,0.00,WeatherTracker,2013-05-15 06:25:00,
2013-05-15 01:35:00,70.5,41.0,29.23,NNW,337,4.0,4.0,35,0.00,,,0.00,WeatherTracker,2013-05-15 06:35:00,
2013-05-15 01:40:00,70.5,41.0,29.23,NNW,337,5.0,5.0,35,0.00,,,0.00,WeatherTracker,2013-05-15 06:40:00,
2013-05-15 01:45:00,70.5,41.0,29.23,North,0,4.0,4.0,35,0.00,,,0.00,WeatherTracker,2013-05-15 06:45:00,
2013-05-15 01:50:00,70.7,42.8,29.23,NNW,337,5.0,5.0,35,0.00,,,0.00,WeatherTracker,2013-05-15 06:50:00,
2013-05-15 01:55:00,70.9,42.8,29.21,North,0,6.0,6.0,35,0.00,,,0.00,WeatherTracker,2013-05-15 06:55:00,
2013-05-15 02:00:00,70.9,42.8,29.21,NNW,337,6.0,6.0,35,0.00,,,0.00,WeatherTracker,2013-05-15 07:00:00,
2013-05-15 02:10:00,70.7,42.8,29.21,North,0,5.0,5.0,35,0.00,,,0.00,WeatherTracker,2013-05-15 07:10:00,
2013-05-15 02:15:00,70.7,42.8,29.21,NNW,337,5.0,6.0,35,0.00,,,0.00,WeatherTracker,2013-05-15 07:15:00,
2013-05-15 02:20:00,70.5,41.0,29.21,North,0,4.0,4.0,35,0.00,,,0.00,WeatherTracker,2013-05-15 07:20:00,
2013-05-15 02:25:00,70.5,41.0,29.23,North,0,4.0,6.0,35,0.00,,,0.00,WeatherTracker,2013-05-15 07:25:00,
2013-05-15 02:35:00,70.2,41.0,29.23,NNW,337,3.0,5.0,35,0.00,,,0.00,WeatherTracker,2013-05-15 07:35:00,
2013-05-15 02:45:00,70.2,42.8,29.21,NNW,337,4.0,4.0,36,0.00,,,0.00,WeatherTracker,2013-05-15 07:45:00,
2013-05-15 02:55:00,70.0,42.8,29.21,NNW,337,4.0,4.0,36,0.00,,,0.00,WeatherTracker,2013-05-15 07:55:00,
2013-05-15 03:00:00,69.8,42.8,29.21,NNW,337,3.0,3.0,36,0.00,,,0.00,WeatherTracker,2013-05-15 08:00:00,
2013-05-15 03:10:00,69.8,42.8,29.21,NNW,337,4.0,4.0,37,0.00,,,0.00,WeatherTracker,2013-05-15 08:10:00,
2013-05-15 03:15:00,69.6,42.8,29.21,North,0,4.0,4.0,38,0.00,,,0.00,WeatherTracker,2013-05-15 08:15:00,
2013-05-15 03:25:00,69.6,44.6,29.21,NNW,337,3.0,4.0,39,0.00,,,0.00,WeatherTracker,2013-05-15 08:25:00,
2013-05-15 03:30:00,69.4,42.8,29.21,North,0,4.0,4.0,39,0.00,,,0.00,WeatherTracker,2013-05-15 08:30:00,
2013-05-15 03:35:00,69.3,44.6,29.21,North,0,4.0,4.0,40,0.00,,,0.00,WeatherTracker,2013-05-15 08:35:00,
2013-05-15 03:45:00,69.1,44.6,29.21,NNW,337,4.0,5.0,42,0.00,,,0.00,WeatherTracker,2013-05-15 08:45:00,
2013-05-15 03:55:00,69.1,46.4,29.21,North,0,3.0,5.0,43,0.00,,,0.00,WeatherTracker,2013-05-15 08:55:00,
2013-05-15 04:00:00,69.1,46.4,29.21,NNW,337,3.0,4.0,43,0.00,,,0.00,WeatherTracker,2013-05-15 09:00:00,
2013-05-15 04:05:00,68.9,46.4,29.21,NNW,337,3.0,6.0,43,0.00,,,0.00,WeatherTracker,2013-05-15 09:05:00,
2013-05-15 04:10:00,68.9,46.4,29.21,NNW,337,5.0,5.0,44,0.00,,,0.00,WeatherTracker,2013-05-15 09:10:00,
2013-05-15 04:20:00,68.7,46.4,29.21,NNW,337,3.0,4.0,45,0.00,,,0.00,WeatherTracker,2013-05-15 09:20:00,
2013-05-15 04:30:00,68.7,48.2,29.21,NNE,22,3.0,4.0,46,0.00,,,0.00,WeatherTracker,2013-05-15 09:30:00,
2013-05-15 04:40:00,69.3,48.2,29.21,NNW,337,4.0,4.0,47,0.00,,,0.00,WeatherTracker,2013-05-15 09:40:00,
2013-05-15 04:45:00,69.3,48.2,29.21,NNW,337,4.0,4.0,47,0.00,,,0.00,WeatherTracker,2013-05-15 09:45:00,
2013-05-15 04:55:00,69.3,48.2,29.18,North,0,3.0,4.0,47,0.00,,,0.00,WeatherTracker,2013-05-15 09:55:00,
2013-05-15 05:05:00,69.1,48.2,29.18,NNW,337,4.0,4.0,48,0.00,,,0.00,WeatherTracker,2013-05-15 10:05:00,
2013-05-15 05:10:00,69.1,48.2,29.21,NNW,337,4.0,4.0,48,0.00,,,0.00,WeatherTracker,2013-05-15 10:10:00,
2013-05-15 05:15:00,68.9,48.2,29.21,NNW,337,4.0,4.0,48,0.00,,,0.00,WeatherTracker,2013-05-15 10:15:00,
2013-05-15 05:20:00,68.9,50.0,29.21,NNW,337,4.0,4.0,49,0.00,,,0.00,WeatherTracker,2013-05-15 10:20:00,
2013-05-15 05:30:00,68.7,50.0,29.21,NNW,337,3.0,4.0,50,0.00,,,0.00,WeatherTracker,2013-05-15 10:30:00,
2013-05-15 05:40:00,68.7,50.0,29.18,NNW,337,4.0,4.0,52,0.00,,,0.00,WeatherTracker,2013-05-15 10:40:00,
2013-05-15 05:45:00,68.5,50.0,29.18,NNW,337,3.0,3.0,52,0.00,,,0.00,WeatherTracker,2013-05-15 10:45:00,
2013-05-15 05:50:00,68.4,51.8,29.18,NNE,22,3.0,3.0,53,0.00,,,0.00,WeatherTracker,2013-05-15 10:50:00,
2013-05-15 05:55:00,68.4,51.8,29.18,NNW,337,4.0,4.0,54,0.00,,,0.00,WeatherTracker,2013-05-15 10:55:00,
2013-05-15 06:00:00,68.4,51.8,29.18,NNW,337,4.0,4.0,55,0.00,,,0.00,WeatherTracker,2013-05-15 11:00:00,
2013-05-15 06:05:00,68.4,51.8,29.18,NNW,337,4.0,5.0,56,0.00,,,0.00,WeatherTracker,2013-05-15 11:05:00,
2013-05-15 06:15:00,68.4,53.6,29.18,NW,315,4.0,4.0,57,0.00,,,0.00,WeatherTracker,2013-05-15 11:15:00,
2013-05-15 06:20:00,68.2,53.6,29.18,NNE,22,3.0,4.0,58,0.00,,,0.00,WeatherTracker,2013-05-15 11:20:00,
2013-05-15 06:25:00,68.2,53.6,29.18,North,0,5.0,6.0,58,0.00,,,0.00,WeatherTracker,2013-05-15 11:25:00,
2013-05-15 06:30:00,68.2,53.6,29.18,NNW,337,5.0,5.0,58,0.00,,,0.00,WeatherTracker,2013-05-15 11:30:00,
2013-05-15 06:35:00,68.4,53.6,29.18,North,0,4.0,4.0,59,0.00,,,0.00,WeatherTracker,2013-05-15 11:35:00,
2013-05-15 06:40:00,68.4,53.6,29.18,North,0,4.0,5.0,59,0.00,,,0.00,WeatherTracker,2013-05-15 11:40:00,
2013-05-15 06:50:00,68.9,55.4,29.18,NNW,337,6.0,6.0,60,0.00,,,0.00,WeatherTracker,2013-05-15 11:50:00,
2013-05-15 07:00:00,69.6,55.4,29.21,NNW,337,4.0,4.0,58,0.00,,,0.00,WeatherTracker,2013-05-15 12:00:00,
2013-05-15 07:05:00,70.0,55.4,29.21,NNW,337,7.0,7.0,58,0.00,,,0.00,WeatherTracker,2013-05-15 12:05:00,
2013-05-15 07:15:00,70.3,55.4,29.21,NNW,337,5.0,5.0,57,0.00,,,0.00,WeatherTracker,2013-05-15 12:15:00,
2013-05-15 07:25:00,71.1,55.4,29.21,North,0,5.0,8.0,57,0.00,,,0.00,WeatherTracker,2013-05-15 12:25:00,
2013-05-15 07:35:00,71.2,55.4,29.21,North,0,6.0,7.0,57,0.00,,,0.00,WeatherTracker,2013-05-15 12:35:00,
2013-05-15 07:40:00,71.2,55.4,29.21,NNW,337,6.0,6.0,57,0.00,,,0.00,WeatherTracker,2013-05-15 12:40:00,
2013-05-15 07:46:00,71.6,55.4,29.21,NNW,337,6.0,6.0,56,0.00,,,0.00,WeatherTracker,2013-05-15 12:46:00,
2013-05-15 07:55:00,72.3,55.4,29.21,NNW,337,10.0,10.0,55,0.00,,,0.00,WeatherTracker,2013-05-15 12:55:00,
2013-05-15 08:00:00,72.7,55.4,29.21,North,0,8.0,8.0,54,0.00,,,0.00,WeatherTracker,2013-05-15 13:00:00,
2013-05-15 08:10:00,73.0,55.4,29.21,NNW,337,7.0,8.0,54,0.00,,,0.00,WeatherTracker,2013-05-15 13:10:00,
2013-05-15 08:15:00,73.6,55.4,29.21,NNW,337,6.0,6.0,54,0.00,,,0.00,WeatherTracker,2013-05-15 13:15:00,
2013-05-15 08:25:00,73.8,55.4,29.21,NNW,337,5.0,6.0,53,0.00,,,0.00,WeatherTracker,2013-05-15 13:25:00,
2013-05-15 08:35:00,74.3,57.2,29.21,NNW,337,5.0,5.0,53,0.00,,,0.00,WeatherTracker,2013-05-15 13:35:00,
2013-05-15 08:41:00,74.3,57.2,29.21,North,0,6.0,6.0,53,0.00,,,0.00,WeatherTracker,2013-05-15 13:41:00,
2013-05-15 08:50:00,74.1,55.4,29.21,NNW,337,7.0,9.0,53,0.00,,,0.00,WeatherTracker,2013-05-15 13:50:00,
2013-05-15 08:55:00,73.8,57.2,29.21,NNW,337,8.0,8.0,54,0.00,,,0.00,WeatherTracker,2013-05-15 13:55:00,
2013-05-15 09:00:00,73.8,57.2,29.21,NNW,337,6.0,10.0,55,0.00,,,0.00,WeatherTracker,2013-05-15 14:00:00,
2013-05-15 09:05:00,73.4,55.4,29.21,NNW,337,6.0,6.0,55,0.00,,,0.00,WeatherTracker,2013-05-15 14:05:00,
2013-05-15 09:15:00,73.0,57.2,29.23,North,0,6.0,6.0,57,0.00,,,0.00,WeatherTracker,2013-05-15 14:15:00,
2013-05-15 09:20:00,73.2,57.2,29.23,NNE,22,4.0,4.0,58,0.00,,,0.00,WeatherTracker,2013-05-15 14:20:00,
2013-05-15 09:25:00,73.2,57.2,29.21,NNW,337,7.0,7.0,57,0.00,,,0.00,WeatherTracker,2013-05-15 14:25:00,
2013-05-15 09:30:00,73.6,57.2,29.21,NNE,22,5.0,6.0,57,0.00,,,0.00,WeatherTracker,2013-05-15 14:30:00,
2013-05-15 09:36:00,73.9,57.2,29.21,NNW,337,6.0,6.0,57,0.00,,,0.00,WeatherTracker,2013-05-15 14:36:00,
2013-05-15 09:45:00,74.1,57.2,29.21,North,0,5.0,5.0,56,0.00,,,0.00,WeatherTracker,2013-05-15 14:45:00,
2013-05-15 09:55:00,73.6,57.2,29.21,North,0,9.0,9.0,57,0.00,,,0.00,WeatherTracker,2013-05-15 14:55:00,
2013-05-15 10:00:00,73.6,57.2,29.21,North,0,9.0,9.0,58,0.00,,,0.00,WeatherTracker,2013-05-15 15:00:00,
2013-05-15 10:10:00,73.6,57.2,29.23,NNW,337,6.0,7.0,58,0.00,,,0.00,WeatherTracker,2013-05-15 15:10:00,
2013-05-15 10:15:00,73.4,57.2,29.23,North,0,6.0,9.0,58,0.00,,,0.00,WeatherTracker,2013-05-15 15:15:00,
2013-05-15 10:20:00,73.6,57.2,29.23,NNE,22,5.0,8.0,58,0.00,,,0.00,WeatherTracker,2013-05-15 15:20:00,
2013-05-15 10:25:00,73.6,59.0,29.21,NNW,337,7.0,8.0,59,0.00,,,0.00,WeatherTracker,2013-05-15 15:25:00,
2013-05-15 10:30:00,73.9,59.0,29.21,North,0,8.0,8.0,58,0.00,,,0.00,WeatherTracker,2013-05-15 15:30:00,
2013-05-15 10:35:00,74.3,59.0,29.21,NNW,337,7.0,10.0,57,0.00,,,0.00,WeatherTracker,2013-05-15 15:35:00,
2013-05-15 10:45:00,74.7,59.0,29.23,NNE,22,6.0,10.0,57,0.00,,,0.00,WeatherTracker,2013-05-15 15:45:00,
2013-05-15 10:50:00,74.8,59.0,29.23,North,0,6.0,9.0,57,0.00,,,0.00,WeatherTracker,2013-05-15 15:50:00,
2013-05-15 10:55:00,75.0,59.0,29.21,NNW,337,5.0,5.0,57,0.00,,,0.00,WeatherTracker,2013-05-15 15:55:00,
2013-05-15 11:10:00,74.7,59.0,29.21,NNW,337,8.0,8.0,57,0.00,,,0.00,WeatherTracker,2013-05-15 16:10:00,
2013-05-15 11:20:00,75.2,59.0,29.21,NNW,337,4.0,4.0,57,0.00,,,0.00,WeatherTracker,2013-05-15 16:20:00,
2013-05-15 11:30:00,75.0,59.0,29.23,NNW,337,8.0,11.0,56,0.00,,,0.00,WeatherTracker,2013-05-15 16:30:00,
2013-05-15 11:35:00,75.2,59.0,29.23,NNW,337,4.0,6.0,56,0.00,,,0.00,WeatherTracker,2013-05-15 16:35:00,
2013-05-15 11:40:00,75.2,59.0,29.21,NNW,337,8.0,8.0,56,0.00,,,0.00,WeatherTracker,2013-05-15 16:40:00,
2013-05-15 11:50:00,75.6,59.0,29.21,NNW,337,8.0,8.0,54,0.00,,,0.00,WeatherTracker,2013-05-15 16:50:00,
2013-05-15 11:55:00,75.7,57.2,29.21,North,0,10.0,10.0,53,0.00,,,0.00,WeatherTracker,2013-05-15 16:55:00,
2013-05-15 12:05:00,74.8,57.2,29.21,North,0,6.0,8.0,55,0.00,,,0.00,WeatherTracker,2013-05-15 17:05:00,
2013-05-15 12:10:00,74.7,57.2,29.21,NNW,337,7.0,7.0,56,0.00,,,0.00,WeatherTracker,2013-05-15 17:10:00,
2013-05-15 12:20:00,74.7,57.2,29.21,North,0,7.0,8.0,56,0.00,,,0.00,WeatherTracker,2013-05-15 17:20:00,
2013-05-15 12:26:00,74.8,59.0,29.21,North,0,4.0,5.0,58,0.00,,,0.00,WeatherTracker,2013-05-15 17:26:00,
2013-05-15 12:35:00,74.5,59.0,29.21,NNE,22,8.0,8.0,57,0.00,,,0.00,WeatherTracker,2013-05-15 17:35:00,
2013-05-15 12:40:00,74.3,59.0,29.21,North,0,6.0,6.0,57,0.00,,,0.00,WeatherTracker,2013-05-15 17:40:00,
2013-05-15 12:45:00,73.9,59.0,29.21,NNE,22,4.0,4.0,59,0.00,,,0.00,WeatherTracker,2013-05-15 17:45:00,
2013-05-15 12:55:00,73.6,59.0,29.21,NNW,337,7.0,7.0,60,0.00,,,0.00,WeatherTracker,2013-05-15 17:55:00,
2013-05-15 13:05:00,73.4,59.0,29.21,NNW,337,3.0,6.0,62,0.00,,,0.00,WeatherTracker,2013-05-15 18:05:00,
2013-05-15 13:15:00,73.0,60.8,29.21,North,0,4.0,6.0,65,0.00,,,0.00,WeatherTracker,2013-05-15 18:15:00,
2013-05-15 13:26:00,72.5,60.8,29.21,North,0,4.0,8.0,64,0.00,,,0.00,WeatherTracker,2013-05-15 18:26:00,
2013-05-15 13:35:00,71.6,60.8,29.21,North,0,4.0,6.0,69,0.00,,,0.00,WeatherTracker,2013-05-15 18:35:00,
2013-05-15 13:40:00,71.4,60.8,29.21,North,0,4.0,6.0,70,0.00,,,0.00,WeatherTracker,2013-05-15 18:40:00,
2013-05-15 13:50:00,71.1,62.6,29.21,NNW,337,4.0,4.0,72,0.00,,,0.00,WeatherTracker,2013-05-15 18:50:00,
2013-05-15 13:55:00,70.9,62.6,29.21,NNW,337,4.0,4.0,74,0.00,,,0.00,WeatherTracker,2013-05-15 18:55:00,
2013-05-15 14:05:00,71.1,62.6,29.21,NNW,337,4.0,6.0,76,0.00,,,0.00,WeatherTracker,2013-05-15 19:05:00,
2013-05-15 14:10:00,70.9,62.6,29.21,NNW,337,6.0,6.0,75,0.00,,,0.00,WeatherTracker,2013-05-15 19:10:00,
2013-05-15 14:15:00,71.2,62.6,29.21,NNW,337,4.0,6.0,76,0.00,,,0.00,WeatherTracker,2013-05-15 19:15:00,
2013-05-15 14:20:00,71.1,62.6,29.21,North,0,4.0,9.0,73,0.00,,,0.00,WeatherTracker,2013-05-15 19:20:00,
2013-05-15 14:30:00,71.1,60.8,29.21,North,0,5.0,6.0,71,0.00,,,0.00,WeatherTracker,2013-05-15 19:30:00,
2013-05-15 14:35:00,70.9,62.6,29.21,North,0,6.0,6.0,72,0.00,,,0.00,WeatherTracker,2013-05-15 19:35:00,
2013-05-15 14:40:00,70.7,62.6,29.21,NNW,337,6.0,6.0,73,0.00,,,0.00,WeatherTracker,2013-05-15 19:40:00,
2013-05-15 14:50:00,70.7,62.6,29.21,North,0,7.0,9.0,73,0.00,,,0.00,WeatherTracker,2013-05-15 19:50:00,
2013-05-15 15:00:00,71.1,62.6,29.18,NNW,337,4.0,4.0,74,0.00,,,0.00,WeatherTracker,2013-05-15 20:00:00,
2013-05-15 15:06:00,71.1,62.6,29.18,NNE,22,5.0,5.0,75,0.00,,,0.00,WeatherTracker,2013-05-15 20:06:00,
2013-05-15 15:20:00,70.9,62.6,29.18,North,0,4.0,6.0,75,0.00,,,0.00,WeatherTracker,2013-05-15 20:20:00,
2013-05-15 15:25:00,70.9,62.6,29.18,NNE,22,4.0,4.0,74,0.00,,,0.00,WeatherTracker,2013-05-15 20:25:00,
2013-05-15 15:36:00,71.4,62.6,29.18,North,0,5.0,5.0,73,0.00,,,0.00,WeatherTracker,2013-05-15 20:36:00,
2013-05-15 15:45:00,71.8,62.6,29.18,NNE,22,7.0,7.0,71,0.00,,,0.00,WeatherTracker,2013-05-15 20:45:00,
2013-05-15 15:50:00,72.5,62.6,29.18,WNW,292,4.0,4.0,71,0.00,,,0.00,WeatherTracker,2013-05-15 20:50:00,
2013-05-15 16:00:00,72.7,60.8,29.18,NNW,337,8.0,8.0,66,0.00,,,0.00,WeatherTracker,2013-05-15 21:00:00,
2013-05-15 16:05:00,72.1,60.8,29.18,North,0,6.0,7.0,67,0.00,,,0.00,WeatherTracker,2013-05-15 21:05:00,
2013-05-15 16:15:00,73.0,62.6,29.18,NNW,337,5.0,8.0,68,0.00,,,0.00,WeatherTracker,2013-05-15 21:15:00,
2013-05-15 16:20:00,72.9,62.6,29.18,NNW,337,4.0,5.0,68,0.00,,,0.00,WeatherTracker,2013-05-15 21:20:00,
2013-05-15 16:26:00,72.3,60.8,29.15,North,0,6.0,6.0,67,0.00,,,0.00,WeatherTracker,2013-05-15 21:26:00,
2013-05-15 16:40:00,72.9,60.8,29.15,North,0,5.0,5.0,67,0.00,,,0.00,WeatherTracker,2013-05-15 21:40:00,
2013-05-15 16:45:00,73.4,60.8,29.15,North,0,7.0,7.0,63,0.00,,,0.00,WeatherTracker,2013-05-15 21:45:00,
2013-05-15 16:55:00,73.6,60.8,29.15,North,0,4.0,4.0,63,0.00,,,0.00,WeatherTracker,2013-05-15 21:55:00,
2013-05-15 17:00:00,73.4,59.0,29.15,North,0,5.0,5.0,62,0.00,,,0.00,WeatherTracker,2013-05-15 22:00:00,
2013-05-15 17:06:00,72.9,60.8,29.15,North,0,5.0,5.0,64,0.00,,,0.00,WeatherTracker,2013-05-15 22:06:00,
2013-05-15 17:15:00,73.0,60.8,29.15,NNW,337,4.0,5.0,65,0.00,,,0.00,WeatherTracker,2013-05-15 22:15:00,
2013-05-15 17:20:00,73.0,60.8,29.15,NNW,337,4.0,5.0,65,0.00,,,0.00,WeatherTracker,2013-05-15 22:20:00,
2013-05-15 17:31:00,72.5,60.8,29.12,NNW,337,4.0,9.0,64,0.00,,,0.00,WeatherTracker,2013-05-15 22:31:00,
2013-05-15 17:40:00,72.3,60.8,29.12,North,0,5.0,5.0,66,0.00,,,0.00,WeatherTracker,2013-05-15 22:40:00,
2013-05-15 17:45:00,72.0,60.8,29.12,NNW,337,4.0,4.0,68,0.00,,,0.00,WeatherTracker,2013-05-15 22:45:00,
2013-05-15 17:55:00,72.0,62.6,29.12,NNE,22,3.0,3.0,70,0.00,,,0.00,WeatherTracker,2013-05-15 22:55:00,
2013-05-15 18:05:00,71.8,60.8,29.12,NNE,22,2.0,2.0,69,0.00,,,0.00,WeatherTracker,2013-05-15 23:05:00,
2013-05-15 18:10:00,72.0,60.8,29.12,North,0,2.0,3.0,69,0.00,,,0.00,WeatherTracker,2013-05-15 23:10:00,
2013-05-15 18:20:00,71.8,60.8,29.12,WNW,292,1.0,1.0,68,0.00,,,0.00,WeatherTracker,2013-05-15 23:20:00,
2013-05-15 18:35:00,71.6,60.8,29.12,WNW,292,2.0,0.0,69,0.00,,,0.00,WeatherTracker,2013-05-15 23:35:00,
2013-05-15 18:40:00,71.4,60.8,29.12,West,270,0.0,0.0,69,0.00,,,0.00,WeatherTracker,2013-05-15 23:40:00,
2013-05-15 18:45:00,71.1,60.8,29.12,West,270,1.0,0.0,70,0.00,,,0.00,WeatherTracker,2013-05-15 23:45:00,
2013-05-15 18:55:00,70.7,60.8,29.12,North,0,0.0,0.0,70,0.00,,,0.00,WeatherTracker,2013-05-15 23:55:00,
2013-05-15 19:00:00,70.5,60.8,29.12,North,0,0.0,0.0,71,0.00,,,0.00,WeatherTracker,2013-05-16 00:00:00,
2013-05-15 19:10:00,70.3,60.8,29.12,WNW,292,0.0,0.0,71,0.00,,,0.00,WeatherTracker,2013-05-16 00:10:00,
2013-05-15 19:15:00,70.2,60.8,29.12,WNW,292,0.0,0.0,72,0.00,,,0.00,WeatherTracker,2013-05-16 00:15:00,
2013-05-15 19:25:00,70.2,62.6,29.12,NNW,337,2.0,3.0,74,0.00,,,0.00,WeatherTracker,2013-05-16 00:25:00,
2013-05-15 19:30:00,70.0,62.6,29.12,NNE,22,2.0,3.0,76,0.00,,,0.00,WeatherTracker,2013-05-16 00:30:00,
2013-05-15 19:45:00,69.3,64.4,29.12,NNE,22,7.0,7.0,84,0.00,,,0.00,WeatherTracker,2013-05-16 00:45:00,
2013-05-15 19:50:00,69.1,64.4,29.12,NNW,337,7.0,7.0,86,0.00,,,0.00,WeatherTracker,2013-05-16 00:50:00,
2013-05-15 19:55:00,69.1,66.2,29.12,North,0,10.0,11.0,87,0.00,,,0.00,WeatherTracker,2013-05-16 00:55:00,
2013-05-15 20:05:00,66.9,60.8,29.12,NNE,22,9.0,9.0,82,0.00,,,0.00,WeatherTracker,2013-05-16 01:05:00,
2013-05-15 20:10:00,66.4,60.8,29.12,NNE,22,8.0,8.0,83,0.00,,,0.00,WeatherTracker,2013-05-16 01:10:00,
2013-05-15 20:15:00,65.8,60.8,29.12,NNE,22,9.0,9.0,84,0.00,,,0.00,WeatherTracker,2013-05-16 01:15:00,
2013-05-15 20:25:00,65.3,62.6,29.12,NNW,337,6.0,6.0,87,0.00,,,0.00,WeatherTracker,2013-05-16 01:25:00,
2013-05-15 20:30:00,65.1,60.8,29.12,North,0,5.0,5.0,88,0.00,,,0.00,WeatherTracker,2013-05-16 01:30:00,
2013-05-15 20:40:00,64.8,62.6,29.12,NNE,22,3.0,3.0,89,0.00,,,0.00,WeatherTracker,2013-05-16 01:40:00,
2013-05-15 20:50:00,64.9,62.6,29.12,NNE,22,4.0,5.0,90,0.00,,,0.00,WeatherTracker,2013-05-16 01:50:00,
2013-05-15 20:55:00,65.1,62.6,29.12,NNE,22,5.0,5.0,91,0.00,,,0.00,WeatherTracker,2013-05-16 01:55:00,
2013-05-15 21:05:00,65.3,62.6,29.12,North,0,4.0,9.0,92,0.00,,,0.00,WeatherTracker,2013-05-16 02:05:00,
2013-05-15 21:15:00,65.3,62.6,29.12,NNE,22,3.0,3.0,92,0.00,,,0.00,WeatherTracker,2013-05-16 02:15:00,
2013-05-15 21:25:00,65.1,62.6,29.12,SW,225,4.0,5.0,92,0.00,,,0.00,WeatherTracker,2013-05-16 02:25:00,
2013-05-15 21:35:00,65.1,62.6,29.12,WNW,292,2.0,0.0,92,0.00,,,0.00,WeatherTracker,2013-05-16 02:35:00,
2013-05-15 21:40:00,65.3,62.6,29.09,WNW,292,1.0,1.0,92,0.00,,,0.00,WeatherTracker,2013-05-16 02:40:00,
2013-05-15 21:45:00,65.3,62.6,29.09,WNW,292,2.0,5.0,92,0.00,,,0.00,WeatherTracker,2013-05-16 02:45:00,
2013-05-15 21:50:00,65.5,62.6,29.09,North,0,3.0,4.0,92,0.00,,,0.00,WeatherTracker,2013-05-16 02:50:00,
2013-05-15 21:55:00,65.5,62.6,29.09,NNW,337,2.0,3.0,91,0.00,,,0.00,WeatherTracker,2013-05-16 02:55:00,
2013-05-15 22:00:00,65.7,62.6,29.09,NNW,337,3.0,3.0,92,0.00,,,0.00,WeatherTracker,2013-05-16 03:00:00,
2013-05-15 22:10:00,65.7,62.6,29.09,NNE,22,2.0,2.0,92,0.00,,,0.00,WeatherTracker,2013-05-16 03:10:00,
2013-05-15 22:15:00,65.8,62.6,29.09,NNE,22,4.0,6.0,92,0.00,,,0.00,WeatherTracker,2013-05-16 03:15:00,
2013-05-15 22:21:00,66.0,64.4,29.09,South,180,7.0,7.0,92,0.00,,,0.00,WeatherTracker,2013-05-16 03:21:00,
2013-05-15 22:35:00,65.7,62.6,29.09,NW,315,9.0,9.0,90,0.00,,,0.00,WeatherTracker,2013-05-16 03:35:00,
2013-05-15 22:45:00,65.3,60.8,29.09,NNE,22,5.0,5.0,83,0.00,,,0.00,WeatherTracker,2013-05-16 03:45:00,
2013-05-15 22:50:00,65.3,60.8,29.09,NNE,22,8.0,8.0,83,0.00,,,0.00,WeatherTracker,2013-05-16 03:50:00,
2013-05-15 22:56:00,65.1,59.0,29.09,NNE,22,6.0,7.0,83,0.00,,,0.00,WeatherTracker,2013-05-16 03:56:00,
2013-05-15 23:05:00,65.1,60.8,29.09,NNW,337,8.0,8.0,85,0.00,,,0.00,WeatherTracker,2013-05-16 04:05:00,
2013-05-15 23:10:00,65.1,60.8,29.09,NNE,22,6.0,6.0,85,0.00,,,0.00,WeatherTracker,2013-05-16 04:10:00,
2013-05-15 23:15:00,64.9,60.8,29.09,NNE,22,7.0,7.0,85,0.00,,,0.00,WeatherTracker,2013-05-16 04:15:00,
2013-05-15 23:20:00,64.9,60.8,29.09,NNW,337,10.0,10.0,85,0.00,,,0.00,WeatherTracker,2013-05-16 04:20:00,
2013-05-15 23:25:00,64.9,60.8,29.09,NNW,337,7.0,9.0,84,0.00,,,0.00,WeatherTracker,2013-05-16 04:25:00,
2013-05-15 23:35:00,64.8,59.0,29.09,North,0,11.0,11.0,81,0.00,,,0.00,WeatherTracker,2013-05-16 04:35:00,
2013-05-15 23:45:00,64.6,59.0,29.09,NNW,337,7.0,12.0,80,0.00,,,0.00,WeatherTracker,2013-05-16 04:45:00,
2013-05-15 23:55:00,64.4,59.0,29.06,North,0,4.0,6.0,80,0.00,,,0.00,WeatherTracker,2013-05-16 04:55:00,